KC7FQC Weather Reports


time (UTC)temp
F
wind
direction
speed
knots
gust
knots
rain 1hr
in
rain 24hr
in
rain mn
in
humidity
%
barometer
mb
20200524210911 97 248 0.0 7.0 0.00 0.00 0.00 8 1006.3
20200524210441 96 319 0.0 8.7 0.00 0.00 0.00 9 1006.4
20200524205941 96 317 1.7 8.7 0.00 0.00 0.00 9 1006.3
20200524205441 97 327 8.7 8.7 0.00 0.00 0.00 9 1006.5
20200524204957 97 323 4.3 9.6 0.00 0.00 0.00 9 1006.6
20200524204457 98 215 4.3 9.6 0.00 0.00 0.00 8 1006.6
20200524203941 98 237 1.7 8.7 0.00 0.00 0.00 8 1006.7
20200524203457 98 229 3.5 5.2 0.00 0.00 0.00 8 1006.7
20200524202941 98 205 0.0 5.2 0.00 0.00 0.00 9 1006.9
20200524202442 97 178 0.9 6.1 0.00 0.00 0.00 8 1006.8
20200524201941 97 265 0.9 8.7 0.00 0.00 0.00 8 1006.7
20200524201441 97 263 4.3 9.6 0.00 0.00 0.00 7 1006.9
20200524200957 97 217 6.1 9.6 0.00 0.00 0.00 7 1007.1
20200524200441 98 311 4.3 7.8 0.00 0.00 0.00 7 1007.1
20200524200011 98 246 0.9 8.7 0.00 0.00 0.00 8 1007.0
20200524195412 97 248 7.0 8.7 0.00 0.00 0.00 7 1007.2
20200524194942 97 215 1.7 7.8 0.00 0.00 0.00 7 1007.2
20200524194441 97 235 6.1 6.1 0.00 0.00 0.00 7 1007.5
20200524193911 97 239 5.2 9.6 0.00 0.00 0.00 6 1007.6
20200524193441 97 227 4.3 9.6 0.00 0.00 0.00 7 1007.7
20200524192957 97 252 3.5 6.1 0.00 0.00 0.00 7 1007.8
20200524192441 97 254 0.9 4.3 0.00 0.00 0.00 8 1007.9
20200524191941 97 257 1.7 5.2 0.00 0.00 0.00 8 1007.9
20200524191441 96 257 1.7 7.0 0.00 0.00 0.00 9 1008.0
20200524190941 95 259 2.6 7.0 0.00 0.00 0.00 9 1008.1
20200524190441 95 272 0.9 7.0 0.00 0.00 0.00 9 1008.2
20200524185957 95 198 0.9 7.0 0.00 0.00 0.00 9 1008.1
20200524185441 94 212 5.2 7.0 0.00 0.00 0.00 10 1008.4
20200524184941 95 203 4.3 5.2 0.00 0.00 0.00 10 1008.5
20200524184441 94 200 0.0 7.0 0.00 0.00 0.00 10 1008.4
20200524183941 93 186 0.0 7.0 0.00 0.00 0.00 12 1008.5
20200524183457 94 240 1.7 7.0 0.00 0.00 0.00 12 1008.5
20200524182942 93 240 0.0 7.0 0.00 0.00 0.00 13 1008.4
20200524182441 93 248 1.7 7.8 0.00 0.00 0.00 13 1008.4
20200524181941 92 249 5.2 7.8 0.00 0.00 0.00 13 1008.7
20200524181441 91 246 7.8 7.8 0.00 0.00 0.00 14 1008.7
20200524180957 92 206 1.7 7.0 0.00 0.00 0.00 13 1008.7
20200524180457 92 212 0.0 4.3 0.00 0.00 0.00 13 1008.7
20200524175957 92 208 0.9 6.1 0.00 0.00 0.00 14 1008.8
20200524175457 91 205 0.0 6.1 0.00 0.00 0.00 14 1008.8
20200524174941 90 200 0.0 6.1 0.00 0.00 0.00 14 1008.8
20200524174441 90 202 5.2 6.1 0.00 0.00 0.00 14 1008.9
20200524173941 91 205 1.7 6.1 0.00 0.00 0.00 15 1008.9
20200524173442 91 203 0.9 6.1 0.00 0.00 0.00 15 1008.7
20200524172957 91 200 6.1 6.1 0.00 0.00 0.00 15 1008.7
20200524172457 90 200 0.9 5.2 0.00 0.00 0.00 15 1008.7
20200524171957 89 198 0.0 5.2 0.00 0.00 0.00 15 1008.7
20200524171441 89 198 1.7 5.2 0.00 0.00 0.00 15 1008.9
20200524170911 89 198 0.9 4.3 0.00 0.00 0.00 15 1008.8
20200524170441 89 198 1.7 5.2 0.00 0.00 0.00 16 1009.0
20200524165957 88 198 0.0 6.1 0.00 0.00 0.00 16 1008.9
20200524165441 88 198 5.2 6.1 0.00 0.00 0.00 16 1008.8
20200524164941 88 198 0.0 3.5 0.00 0.00 0.00 16 1008.8
20200524164441 87 198 0.0 5.2 0.00 0.00 0.00 16 1008.9
20200524163941 87 198 0.9 5.2 0.00 0.00 0.00 16 1008.9
20200524163441 86 202 1.7 2.6 0.00 0.00 0.00 16 1008.8
20200524162941 85 202 1.7 3.5 0.00 0.00 0.00 17 1008.8
20200524162458 85 202 1.7 3.5 0.00 0.00 0.00 17 1008.8
20200524161941 84 202 0.0 3.5 0.00 0.00 0.00 17 1008.9
20200524161457 84 202 3.5 5.2 0.00 0.00 0.00 17 1008.9
20200524160941 84 203 3.5 6.1 0.00 0.00 0.00 17 1008.8
20200524160457 84 208 2.6 6.1 0.00 0.00 0.00 17 1008.9
20200524155941 84 208 0.9 6.1 0.00 0.00 0.00 17 1009.0
20200524155442 84 208 0.0 2.6 0.00 0.00 0.00 17 1008.9
20200524154941 83 208 0.0 6.1 0.00 0.00 0.00 17 1009.0
20200524154411 83 208 0.9 6.1 0.00 0.00 0.00 17 1009.0
20200524153957 83 211 0.0 4.3 0.00 0.00 0.00 17 1008.9
20200524153441 83 211 0.0 2.6 0.00 0.00 0.00 17 1009.0
20200524152957 83 211 0.9 2.6 0.00 0.00 0.00 17 1009.0
20200524152457 83 213 0.0 1.7 0.00 0.00 0.00 18 1008.9
20200524151941 82 213 0.0 1.7 0.00 0.00 0.00 18 1008.6
20200524151457 81 213 0.9 1.7 0.00 0.00 0.00 18 1008.6
20200524150941 81 213 0.0 2.6 0.00 0.00 0.00 18 1008.5
20200524150457 80 213 0.0 2.6 0.00 0.00 0.00 19 1008.3
20200524145941 81 213 0.0 2.6 0.00 0.00 0.00 18 1008.3
20200524145457 81 213 0.0 2.6 0.00 0.00 0.00 19 1008.3
20200524144941 80 213 0.0 0.0 0.00 0.00 0.00 19 1008.2
20200524144441 79 213 0.0 0.0 0.00 0.00 0.00 20 1008.1
20200524143957 78 213 0.0 0.9 0.00 0.00 0.00 20 1008.0
20200524143457 77 213 0.0 0.9 0.00 0.00 0.00 21 1007.9
20200524142941 76 213 0.0 0.0 0.00 0.00 0.00 21 1007.8
20200524142441 75 213 0.0 0.0 0.00 0.00 0.00 22 1007.6
20200524141956 74 213 0.0 2.6 0.00 0.00 0.00 25 1007.5
20200524141457 73 213 0.0 2.6 0.00 0.00 0.00 25 1007.5
20200524140941 72 213 0.9 2.6 0.00 0.00 0.00 26 1007.3
20200524140441 72 213 0.0 2.6 0.00 0.00 0.00 27 1007.2
20200524135956 71 213 0.9 2.6 0.00 0.00 0.00 28 1007.2
20200524135441 71 213 0.0 0.0 0.00 0.00 0.00 31 1007.4
20200524134941 70 213 0.0 0.0 0.00 0.00 0.00 31 1007.2
20200524134441 69 213 0.0 0.9 0.00 0.00 0.00 31 1007.2
20200524133941 69 213 0.0 0.9 0.00 0.00 0.00 31 1007.3
20200524133441 68 237 0.0 0.9 0.00 0.00 0.00 32 1007.1
20200524132957 68 237 0.0 0.0 0.00 0.00 0.00 32 1007.0
20200524132457 68 237 0.0 0.0 0.00 0.00 0.00 32 1007.1
20200524131941 67 237 0.0 0.0 0.00 0.00 0.00 32 1007.0
20200524131441 67 237 0.0 0.0 0.00 0.00 0.00 34 1007.0
20200524130956 67 237 0.0 0.0 0.00 0.00 0.00 33 1006.9
20200524130441 66 237 0.0 0.0 0.00 0.00 0.00 32 1006.8
20200524125941 66 237 0.0 0.0 0.00 0.00 0.00 32 1006.8
20200524125456 66 237 0.0 1.7 0.00 0.00 0.00 31 1006.7
20200524124941 66 237 0.0 1.7 0.00 0.00 0.00 30 1006.6
20200524124457 66 237 1.7 1.7 0.00 0.00 0.00 32 1006.6
20200524123957 66 237 0.0 1.7 0.00 0.00 0.00 31 1006.4
20200524123446 66 237 0.0 1.7 0.00 0.00 0.00 31 1006.3
20200524122941 66 237 0.0 1.7 0.00 0.00 0.00 30 1006.1
20200524122456 66 237 0.9 1.7 0.00 0.00 0.00 30 1006.0
20200524121941 67 237 0.0 0.0 0.00 0.00 0.00 30 1006.2
20200524121441 67 237 0.0 0.0 0.00 0.00 0.00 31 1006.2
20200524120945 67 237 0.0 0.0 0.00 0.00 0.00 31 1006.1
20200524120456 67 237 0.0 0.0 0.00 0.00 0.00 29 1006.1
20200524115957 67 237 0.0 0.0 0.00 0.00 0.00 29 1006.0
20200524115441 67 237 0.0 0.0 0.00 0.00 0.00 28 1006.0
20200524114941 67 237 0.0 0.0 0.00 0.00 0.00 29 1006.1
20200524114456 68 237 0.0 0.0 0.00 0.00 0.00 28 1006.2
20200524113956 68 237 0.0 0.0 0.00 0.00 0.00 29 1006.1
20200524113441 68 237 0.0 0.0 0.00 0.00 0.00 28 1006.0
20200524112956 68 237 0.0 0.0 0.00 0.00 0.00 28 1006.1
20200524112441 68 237 0.0 0.0 0.00 0.00 0.00 28 1006.0
20200524111956 68 237 0.0 0.0 0.00 0.00 0.00 28 1006.0
20200524111457 68 237 0.0 0.0 0.00 0.00 0.00 28 1005.9
20200524110941 69 237 0.0 0.0 0.00 0.00 0.00 28 1005.8
20200524110441 69 237 0.0 0.0 0.00 0.00 0.00 27 1005.8
20200524105941 69 237 0.0 0.0 0.00 0.00 0.00 28 1005.8
20200524105457 69 237 0.0 0.0 0.00 0.00 0.00 27 1005.9
20200524104941 70 237 0.0 0.0 0.00 0.00 0.00 27 1005.9
20200524104441 70 237 0.0 0.0 0.00 0.00 0.00 27 1005.9
20200524103941 70 237 0.0 0.0 0.00 0.00 0.00 26 1006.0
20200524103441 70 237 0.0 0.0 0.00 0.00 0.00 26 1006.1
20200524102941 70 237 0.0 0.0 0.00 0.00 0.00 26 1006.1
20200524102441 70 237 0.0 0.0 0.00 0.00 0.00 26 1005.9
20200524101941 71 237 0.0 0.0 0.00 0.00 0.00 26 1005.9
20200524101441 71 237 0.0 2.6 0.00 0.00 0.00 27 1005.9
20200524100941 71 237 0.0 2.6 0.00 0.00 0.00 26 1005.9
20200524100456 71 237 0.0 2.6 0.00 0.00 0.00 26 1005.7
20200524095941 71 237 0.9 5.2 0.00 0.00 0.00 26 1005.7
20200524095441 71 237 1.7 5.2 0.00 0.00 0.00 26 1005.7
20200524094956 71 237 2.6 3.5 0.00 0.00 0.00 26 1005.7
20200524094456 71 237 0.9 0.9 0.00 0.00 0.00 26 1005.6
20200524093941 71 237 0.0 0.9 0.00 0.00 0.00 26 1005.6
20200524093441 72 237 0.0 0.0 0.00 0.00 0.00 26 1005.5
20200524092941 72 237 0.0 0.0 0.00 0.00 0.00 26 1005.5
20200524092441 72 237 0.0 0.0 0.00 0.00 0.00 26 1005.6
20200524091941 72 237 0.0 0.0 0.00 0.00 0.00 25 1005.6
20200524091411 73 237 0.0 0.0 0.00 0.00 0.00 25 1005.8
20200524090956 73 237 0.0 0.0 0.00 0.00 0.00 26 1005.8
20200524090441 73 237 0.0 0.0 0.00 0.00 0.00 25 1005.6
20200524085956 73 237 0.0 1.7 0.00 0.00 0.00 25 1005.5
20200524085457 73 237 0.0 3.5 0.00 0.00 0.00 25 1005.5
20200524084941 73 237 1.7 3.5 0.00 0.00 0.00 25 1005.5
20200524084441 73 237 0.0 2.6 0.00 0.00 0.00 25 1005.6
20200524083941 73 237 1.7 2.6 0.00 0.00 0.00 25 1005.6
20200524083441 73 237 0.0 1.7 0.00 0.00 0.00 24 1005.6
20200524082911 74 237 0.0 1.7 0.00 0.00 0.00 24 1005.4
20200524082441 74 237 0.0 1.7 0.00 0.00 0.00 24 1005.4
20200524081941 74 237 0.0 0.9 0.00 0.00 0.00 24 1005.5
20200524081456 74 237 0.0 1.7 0.00 0.00 0.00 24 1005.6
20200524080956 75 237 0.0 1.7 0.00 0.00 0.00 24 1005.6
20200524080456 75 237 0.0 1.7 0.00 0.00 0.00 24 1005.5
20200524075956 76 237 0.0 0.9 0.00 0.00 0.00 23 1005.6
20200524075441 76 237 0.0 0.0 0.00 0.00 0.00 23 1005.6
20200524074956 76 237 0.0 0.0 0.00 0.00 0.00 23 1005.7
20200524074456 76 237 0.0 1.7 0.00 0.00 0.00 22 1005.6
20200524073941 77 237 0.0 2.6 0.00 0.00 0.00 22 1005.6
20200524073441 77 237 0.0 2.6 0.00 0.00 0.00 22 1005.6
20200524072956 77 237 0.0 0.0 0.00 0.00 0.00 21 1005.5
20200524072441 78 237 0.0 0.0 0.00 0.00 0.00 21 1005.7
20200524071956 78 237 0.0 0.0 0.00 0.00 0.00 20 1005.8
20200524071456 78 237 0.0 0.0 0.00 0.00 0.00 20 1005.7
20200524070941 78 237 0.0 0.9 0.00 0.00 0.00 20 1005.7
20200524070456 79 237 0.0 3.5 0.00 0.00 0.00 20 1005.7
20200524065956 79 237 0.0 3.5 0.00 0.00 0.00 19 1005.7
20200524065457 79 237 0.9 2.6 0.00 0.00 0.00 19 1005.6
20200524064941 79 237 0.9 3.5 0.00 0.00 0.00 19 1005.6
20200524064441 80 237 1.7 3.5 0.00 0.00 0.00 18 1005.6
20200524063941 80 237 0.9 2.6 0.00 0.00 0.00 18 1005.6
20200524063456 81 237 0.9 2.6 0.00 0.00 0.00 18 1005.6
20200524062941 81 237 0.0 3.5 0.00 0.00 0.00 17 1005.6
20200524062440 81 237 0.0 3.5 0.00 0.00 0.00 17 1005.6
20200524061942 81 237 0.9 3.5 0.00 0.00 0.00 17 1005.6
20200524061456 82 237 0.9 3.5 0.00 0.00 0.00 16 1005.6
20200524060956 82 237 1.7 4.3 0.00 0.00 0.00 16 1005.7
20200524060440 82 237 0.9 5.2 0.00 0.00 0.00 16 1005.7
20200524055941 82 237 3.5 7.0 0.00 0.00 0.00 16 1005.8
20200524055456 82 237 2.6 9.6 0.00 0.00 0.00 15 1005.5
20200524054956 82 225 7.0 9.6 0.00 0.00 0.00 15 1005.5
20200524054440 82 227 3.5 7.8 0.00 0.00 0.00 15 1005.5
20200524053941 83 229 2.6 5.2 0.00 0.00 0.00 14 1005.7
20200524053456 83 228 0.9 4.3 0.00 0.00 0.00 14 1005.8
20200524052941 83 228 0.9 5.2 0.00 0.00 0.00 14 1005.9
20200524052441 83 228 1.7 5.2 0.00 0.00 0.00 14 1005.8
20200524051940 83 227 5.2 5.2 0.00 0.00 0.00 13 1005.7
20200524051441 83 227 1.7 5.2 0.00 0.00 0.00 13 1005.7
20200524050957 84 225 1.7 6.1 0.00 0.00 0.00 13 1005.7
20200524050440 84 225 2.6 6.1 0.00 0.00 0.00 13 1005.6
20200524045941 84 225 2.6 6.1 0.00 0.00 0.00 13 1005.6
20200524045457 84 225 1.7 6.1 0.00 0.00 0.00 13 1005.6
20200524044941 84 231 3.5 5.2 0.00 0.00 0.00 12 1005.4
20200524044457 84 230 2.6 3.5 0.00 0.00 0.00 12 1005.4
20200524043941 85 230 1.7 4.3 0.00 0.00 0.00 12 1005.3
20200524043440 85 230 1.7 5.2 0.00 0.00 0.00 12 1005.3
20200524042941 85 229 1.7 5.2 0.00 0.00 0.00 12 1005.2
20200524042440 85 230 2.6 5.2 0.00 0.00 0.00 11 1005.1
20200524041940 85 230 1.7 6.1 0.00 0.00 0.00 11 1005.1
20200524041441 85 230 2.6 6.1 0.00 0.00 0.00 11 1005.0
20200524040956 85 229 2.6 5.2 0.00 0.00 0.00 11 1005.0
20200524040456 85 229 2.6 5.2 0.00 0.00 0.00 11 1005.1
20200524035941 85 229 2.6 6.1 0.00 0.00 0.00 11 1004.9
20200524035440 85 229 1.7 6.1 0.00 0.00 0.00 11 1004.7
20200524034940 85 229 3.5 6.1 0.00 0.00 0.00 11 1004.8
20200524034440 86 227 3.5 5.2 0.00 0.00 0.00 11 1004.8
20200524033956 86 227 5.2 7.8 0.00 0.00 0.00 11 1004.7
20200524033456 86 226 3.5 7.8 0.00 0.00 0.00 11 1004.6
20200524032940 86 223 3.5 6.1 0.00 0.00 0.00 11 1004.6
20200524032440 86 223 6.1 7.8 0.00 0.00 0.00 11 1004.6
20200524031940 86 222 3.5 7.8 0.00 0.00 0.00 11 1004.7
20200524031440 86 219 3.5 7.8 0.00 0.00 0.00 11 1004.6
20200524030940 87 219 3.5 7.8 0.00 0.00 0.00 11 1004.5
20200524030456 87 221 0.9 7.0 0.00 0.00 0.00 11 1004.5
20200524025956 87 221 4.3 9.6 0.00 0.00 0.00 11 1004.4
20200524025440 87 217 3.5 9.6 0.00 0.00 0.00 10 1004.3
20200524024956 87 218 4.3 7.8 0.00 0.00 0.00 10 1004.2
20200524024441 88 212 1.7 6.1 0.00 0.00 0.00 10 1004.2
20200524023940 88 212 3.5 6.1 0.00 0.00 0.00 10 1004.0
20200524023456 88 212 3.5 7.8 0.00 0.00 0.00 10 1003.9
20200524022956 88 224 2.6 8.7 0.00 0.00 0.00 10 1003.9
20200524022456 88 217 4.3 9.6 0.00 0.00 0.00 10 1004.0
20200524021940 89 213 4.3 9.6 0.00 0.00 0.00 10 1003.9
20200524021440 89 202 4.3 7.0 0.00 0.00 0.00 10 1003.8
20200524020956 89 220 2.6 8.7 0.00 0.00 0.00 9 1003.8
20200524020441 89 224 5.2 8.7 0.00 0.00 0.00 9 1003.8
20200524015956 89 225 6.1 8.7 0.00 0.00 0.00 9 1003.8
20200524015440 90 254 7.0 8.7 0.00 0.00 0.00 10 1003.8
20200524014956 90 223 6.1 9.6 0.00 0.00 0.00 10 1003.7
20200524014440 90 227 5.2 9.6 0.00 0.00 0.00 10 1003.7
20200524013940 90 360 7.8 9.6 0.00 0.00 0.00 10 1003.7
20200524013456 91 236 7.0 7.8 0.00 0.00 0.00 10 1003.7
20200524012940 91 233 6.1 9.6 0.00 0.00 0.00 10 1003.5
20200524012440 91 237 6.1 9.6 0.00 0.00 0.00 10 1003.5
20200524011940 91 211 7.8 10.4 0.00 0.00 0.00 11 1003.5
20200524011441 91 225 5.2 11.3 0.00 0.00 0.00 11 1003.5
20200524010956 91 251 8.7 11.3 0.00 0.00 0.00 11 1003.5
20200524010456 91 208 3.5 6.1 0.00 0.00 0.00 11 1003.6
20200524005956 91 207 0.9 9.6 0.00 0.00 0.00 11 1003.6
20200524005457 92 208 5.2 9.6 0.00 0.00 0.00 11 1003.5
20200524004941 92 210 0.9 9.6 0.00 0.00 0.00 11 1003.4
20200524004440 92 244 5.2 11.3 0.00 0.00 0.00 10 1003.5
20200524003940 93 207 2.6 11.3 0.00 0.00 0.00 11 1003.5
20200524003440 93 207 3.5 12.2 0.00 0.00 0.00 11 1003.5
20200524002956 93 213 1.7 12.2 0.00 0.00 0.00 11 1003.5
20200524002440 93 236 2.6 10.4 0.00 0.00 0.00 11 1003.6
20200524001956 93 233 6.1 10.4 0.00 0.00 0.00 11 1003.6
20200524001440 93 223 2.6 7.8 0.00 0.00 0.00 12 1003.6
20200524000956 92 229 5.2 8.7 0.00 0.00 0.00 11 1003.6
20200524000440 92 235 2.6 9.6 0.00 0.00 0.00 11 1003.7
20200523235940 93 239 4.3 9.6 0.00 0.00 0.00 10 1003.7
20200523235440 93 234 5.2 9.6 0.00 0.00 0.00 11 1003.8
20200523234941 93 225 4.3 9.6 0.00 0.00 0.00 11 1003.9
20200523234440 93 232 2.6 11.3 0.00 0.00 0.00 11 1003.9
20200523233955 93 248 6.1 11.3 0.00 0.00 0.00 11 1003.9
20200523233455 93 242 9.6 11.3 0.00 0.00 0.00 10 1003.9
20200523232940 94 237 3.5 11.3 0.00 0.00 0.00 10 1004.0
20200523232441 94 246 3.5 9.6 0.00 0.00 0.00 11 1003.9
20200523231940 94 267 6.1 10.4 0.00 0.00 0.00 10 1004.0
20200523231456 94 242 6.1 10.4 0.00 0.00 0.00 10 1004.0
20200523230940 94 196 7.8 9.6 0.00 0.00 0.00 10 1004.0
20200523230456 94 241 2.6 12.2 0.00 0.00 0.00 11 1004.0
20200523225956 94 246 2.6 12.2 0.00 0.00 0.00 11 1004.0
20200523225440 94 236 12.2 12.2 0.00 0.00 0.00 11 1004.1
20200523224940 94 211 5.2 11.3 0.00 0.00 0.00 12 1004.1
20200523224440 94 236 7.0 12.2 0.00 0.00 0.00 11 1004.2
20200523223940 94 230 7.0 13.0 0.00 0.00 0.00 11 1004.2
20200523223440 94 234 8.7 13.9 0.00 0.00 0.00 11 1004.2
20200523222940 94 252 12.2 13.9 0.00 0.00 0.00 11 1004.2
20200523222440 95 242 10.4 10.4 0.00 0.00 0.00 10 1004.2
20200523221940 95 204 0.9 9.6 0.00 0.00 0.00 10 1004.3
20200523221440 95 233 4.3 13.0 0.00 0.00 0.00 10 1004.5
20200523220956 95 252 7.0 15.6 0.00 0.00 0.00 10 1004.5
20200523220456 95 244 8.7 15.6 0.00 0.00 0.00 10 1004.5
20200523215940 95 243 1.7 7.8 0.00 0.00 0.00 10 1004.5
20200523215440 95 234 0.9 10.4 0.00 0.00 0.00 10 1004.7
20200523214940 95 216 5.2 12.2 0.00 0.00 0.00 10 1004.8
20200523214440 95 264 3.5 13.0 0.00 0.00 0.00 11 1004.9
20200523213940 96 262 7.8 13.0 0.00 0.00 0.00 10 1005.1
20200523213455 95 242 3.5 9.6 0.00 0.00 0.00 10 1004.9
20200523212955 95 221 0.0 7.8 0.00 0.00 0.00 11 1005.0
20200523212440 94 175 7.8 7.8 0.00 0.00 0.00 11 1005.1
20200523211940 94 15 2.6 8.7 0.00 0.00 0.00 11 1005.1
20200523211440 94 240 1.7 8.7 0.00 0.00 0.00 11 1005.3